UAL53 GBYD-DFFD

Flight info

Callsign UAL53
Flight time 2h 2m
Altitude 37000
Route SISNU UA601 BKO EDGIB GUPOV
Aircraft B738/M-SDE2E3FGHIRWXY/LB1

Departure

Time 2026-04-22 23:46
Airport Banjul International Airport (GBYD)

Arrival

Time 2026-04-23 01:48
Airport Ouagadougou Thomas Sankara International Airport (DFFD)
Time Latitude Longitude Altitude Speed Heading
2026-04-22 23:34 13.34172 -16.65294 103 ft 0 kts 130°
2026-04-22 23:41 13.34157 -16.65276 103 ft 4 kts 130°
2026-04-22 23:42 13.34106 -16.65248 103 ft 16 kts 166°
2026-04-22 23:42 13.34001 -16.65200 102 ft 14 kts 146°
2026-04-22 23:42 13.33924 -16.65212 100 ft 3 kts 218°
2026-04-22 23:42 13.33914 -16.65219 100 ft 0 kts 218°
2026-04-22 23:43 13.33862 -16.65260 99 ft 17 kts 208°
2026-04-22 23:43 13.33728 -16.65158 99 ft 35 kts 130°
2026-04-22 23:43 13.33522 -16.64911 97 ft 51 kts 130°
2026-04-22 23:43 13.33289 -16.64636 96 ft 49 kts 130°
2026-04-22 23:44 13.33068 -16.64373 94 ft 48 kts 130°
2026-04-22 23:44 13.32886 -16.64154 90 ft 21 kts 126°
2026-04-22 23:44 13.32875 -16.64009 87 ft 16 kts 87°
2026-04-22 23:44 13.32831 -16.63946 86 ft 11 kts 162°
2026-04-22 23:45 13.32758 -16.63959 86 ft 9 kts 232°
2026-04-22 23:45 13.32774 -16.64020 87 ft 11 kts 307°
2026-04-22 23:45 13.32925 -16.64198 90 ft 68 kts 311°
2026-04-22 23:45 13.33419 -16.64787 96 ft 146 kts 311°
2026-04-22 23:46 13.34187 -16.65704 447 ft 180 kts 311°
2026-04-22 23:46 13.35018 -16.66716 1134 ft 195 kts 314°
2026-04-22 23:46 13.36097 -16.67611 1786 ft 211 kts 342°
2026-04-22 23:46 13.37522 -16.68020 2433 ft 212 kts 348°
2026-04-22 23:47 13.38993 -16.67933 3037 ft 221 kts 22°
2026-04-22 23:47 13.40231 -16.66936 3671 ft 234 kts 53°
2026-04-22 23:47 13.40850 -16.65404 4300 ft 237 kts 72°
2026-04-22 23:47 13.41364 -16.63791 4911 ft 240 kts 69°
2026-04-22 23:48 13.41941 -16.62129 5606 ft 258 kts 70°
2026-04-22 23:48 13.42566 -16.60340 6425 ft 277 kts 70°
2026-04-22 23:48 13.43210 -16.58497 7530 ft 282 kts 71°
2026-04-22 23:48 13.43864 -16.56634 8692 ft 283 kts 71°
2026-04-22 23:49 13.44548 -16.54682 9496 ft 296 kts 71°
2026-04-22 23:49 13.45235 -16.52710 10546 ft 298 kts 71°
2026-04-22 23:49 13.45952 -16.50668 11267 ft 313 kts 71°
2026-04-22 23:49 13.46710 -16.48500 11820 ft 332 kts 70°
2026-04-22 23:50 13.47503 -16.46237 12356 ft 350 kts 70°
2026-04-22 23:50 13.48346 -16.43827 12928 ft 366 kts 70°
2026-04-22 23:50 13.49209 -16.41362 13889 ft 369 kts 70°
2026-04-22 23:50 13.50077 -16.38882 14803 ft 373 kts 70°
2026-04-22 23:51 13.50969 -16.36334 15339 ft 388 kts 70°
2026-04-22 23:51 13.51880 -16.33729 16266 ft 389 kts 70°
2026-04-22 23:51 13.52793 -16.31116 17049 ft 394 kts 70°
2026-04-22 23:51 13.53734 -16.28421 17516 ft 407 kts 70°
2026-04-22 23:52 13.54676 -16.25721 18380 ft 406 kts 70°
2026-04-22 23:52 13.55635 -16.22969 18949 ft 414 kts 70°
2026-04-22 23:52 13.56611 -16.20180 19443 ft 422 kts 69°
2026-04-22 23:52 13.57602 -16.17329 20181 ft 422 kts 69°
2026-04-22 23:53 13.58594 -16.14494 20638 ft 430 kts 69°
2026-04-22 23:53 13.59615 -16.11565 21165 ft 434 kts 68°
2026-04-22 23:53 13.60625 -16.08664 21694 ft 438 kts 68°
2026-04-22 23:53 13.61661 -16.05685 22085 ft 445 kts 68°
2026-04-22 23:54 13.62696 -16.02713 22643 ft 446 kts 67°
2026-04-22 23:54 13.63753 -15.99686 23091 ft 452 kts 67°
2026-04-22 23:54 13.64813 -15.96634 23591 ft 454 kts 67°
2026-04-22 23:54 13.65873 -15.93579 24118 ft 456 kts 67°
2026-04-22 23:55 13.66939 -15.90517 24453 ft 463 kts 67°
2026-04-22 23:55 13.68023 -15.87396 25026 ft 463 kts 66°
2026-04-22 23:55 13.69106 -15.84278 25465 ft 466 kts 66°
2026-04-22 23:55 13.70199 -15.81122 25841 ft 471 kts 66°
2026-04-22 23:56 13.71289 -15.77980 26349 ft 471 kts 66°
2026-04-22 23:56 13.72399 -15.74780 26751 ft 474 kts 66°
2026-04-22 23:56 13.73503 -15.71604 27034 ft 480 kts 65°
2026-04-22 23:56 13.74621 -15.68369 27543 ft 479 kts 65°
2026-04-22 23:57 13.75732 -15.65154 27947 ft 480 kts 65°
2026-04-22 23:57 13.76863 -15.61891 28225 ft 485 kts 65°
2026-04-22 23:57 13.77975 -15.58673 28785 ft 482 kts 65°
2026-04-22 23:57 13.79091 -15.55447 29371 ft 478 kts 65°
2026-04-22 23:58 13.80213 -15.52212 29749 ft 480 kts 65°
2026-04-22 23:58 13.81336 -15.48959 30024 ft 484 kts 65°
2026-04-22 23:58 13.82455 -15.45718 30409 ft 484 kts 65°
2026-04-22 23:58 13.83572 -15.42483 31011 ft 479 kts 65°
2026-04-22 23:59 13.84689 -15.39244 31250 ft 484 kts 65°
2026-04-22 23:59 13.85810 -15.35988 31535 ft 486 kts 65°
2026-04-22 23:59 13.86928 -15.32742 31849 ft 482 kts 65°
2026-04-22 23:59 13.88060 -15.29462 31863 ft 483 kts 65°
2026-04-23 00:00 13.91044 -15.20784 31858 ft 486 kts 65°
2026-04-23 00:01 13.93677 -15.13114 32084 ft 487 kts 65°
2026-04-23 00:01 13.94800 -15.09859 32536 ft 485 kts 66°
2026-04-23 00:01 13.95916 -15.06602 32932 ft 484 kts 66°
2026-04-23 00:01 13.97034 -15.03345 33308 ft 484 kts 66°
2026-04-23 00:02 13.98145 -15.00105 33832 ft 481 kts 66°
2026-04-23 00:02 13.99264 -14.96835 34093 ft 483 kts 66°
2026-04-23 00:02 14.00377 -14.93594 34351 ft 485 kts 66°
2026-04-23 00:02 14.01492 -14.90340 34792 ft 483 kts 66°
2026-04-23 00:03 14.02609 -14.87073 35145 ft 483 kts 66°
2026-04-23 00:03 14.03578 -14.83758 35431 ft 487 kts 78°
2026-04-23 00:03 14.03727 -14.80308 35623 ft 492 kts 96°
2026-04-23 00:03 14.03017 -14.76857 36001 ft 489 kts 107°
2026-04-23 00:04 14.02116 -14.73504 36422 ft 487 kts 106°
2026-04-23 00:04 14.01220 -14.70155 36641 ft 489 kts 106°
2026-04-23 00:04 14.00320 -14.66780 36841 ft 491 kts 106°
2026-04-23 00:05 13.98487 -14.59885 36852 ft 505 kts 106°
2026-04-23 00:05 13.96602 -14.52799 36852 ft 517 kts 107°
2026-04-23 00:06 13.94671 -14.45557 36855 ft 526 kts 106°
2026-04-23 00:06 13.92745 -14.38339 36861 ft 524 kts 106°
2026-04-23 00:07 13.90824 -14.31127 36847 ft 521 kts 107°
2026-04-23 00:07 13.88897 -14.23935 36846 ft 522 kts 107°
2026-04-23 00:08 13.86968 -14.16733 36843 ft 523 kts 106°
2026-04-23 00:08 13.85035 -14.09520 36843 ft 521 kts 106°
2026-04-23 00:09 13.83099 -14.02309 36844 ft 521 kts 106°
2026-04-23 00:09 13.81165 -13.95103 36842 ft 521 kts 106°
2026-04-23 00:10 13.79236 -13.87939 36846 ft 519 kts 106°
2026-04-23 00:10 13.77297 -13.80739 36847 ft 521 kts 106°
2026-04-23 00:11 13.75366 -13.73587 36844 ft 521 kts 106°
2026-04-23 00:11 13.73432 -13.66426 36844 ft 520 kts 106°
2026-04-23 00:12 13.71951 -13.59144 36844 ft 520 kts 101°
2026-04-23 00:12 13.70526 -13.51836 36848 ft 520 kts 101°
2026-04-23 00:13 13.69095 -13.44552 36851 ft 519 kts 102°
2026-04-23 00:13 13.67654 -13.37232 36851 ft 520 kts 101°
2026-04-23 00:14 13.66218 -13.29946 36835 ft 518 kts 101°
2026-04-23 00:14 13.64786 -13.22685 36844 ft 520 kts 102°
2026-04-23 00:15 13.63341 -13.15379 36838 ft 520 kts 102°
2026-04-23 00:15 13.61903 -13.08129 36841 ft 519 kts 102°
2026-04-23 00:16 13.60459 -13.00858 36841 ft 518 kts 101°
2026-04-23 00:16 13.59010 -12.93568 36840 ft 520 kts 101°
2026-04-23 00:17 13.57562 -12.86284 36841 ft 520 kts 101°
2026-04-23 00:17 13.56109 -12.78991 36851 ft 519 kts 101°
2026-04-23 00:18 13.54657 -12.71718 36858 ft 519 kts 102°
2026-04-23 00:18 13.53204 -12.64453 36857 ft 520 kts 101°
2026-04-23 00:19 13.51747 -12.57171 36860 ft 520 kts 101°
2026-04-23 00:19 13.50277 -12.49857 36860 ft 520 kts 101°
2026-04-23 00:20 13.48815 -12.42567 36859 ft 522 kts 101°
2026-04-23 00:20 13.47347 -12.35271 36860 ft 520 kts 101°
2026-04-23 00:21 13.45868 -12.27958 36851 ft 519 kts 101°
2026-04-23 00:21 13.44408 -12.20714 36849 ft 519 kts 101°
2026-04-23 00:22 13.42938 -12.13429 36848 ft 520 kts 101°
2026-04-23 00:22 13.41467 -12.06172 36857 ft 518 kts 101°
2026-04-23 00:23 13.39989 -11.98904 36864 ft 519 kts 101°
2026-04-23 00:23 13.38517 -11.91636 36860 ft 519 kts 101°
2026-04-23 00:24 13.37038 -11.84367 36857 ft 519 kts 101°
2026-04-23 00:24 13.35556 -11.77098 36849 ft 519 kts 101°
2026-04-23 00:25 13.34063 -11.69790 36852 ft 519 kts 101°
2026-04-23 00:25 13.32575 -11.62490 36854 ft 519 kts 101°
2026-04-23 00:26 13.31087 -11.55227 36855 ft 521 kts 101°
2026-04-23 00:26 13.29586 -11.47899 36863 ft 520 kts 101°
2026-04-23 00:27 13.28091 -11.40611 36867 ft 521 kts 101°
2026-04-23 00:27 13.26588 -11.33309 36866 ft 520 kts 101°
2026-04-23 00:28 13.25089 -11.26033 36864 ft 519 kts 101°
2026-04-23 00:28 13.23588 -11.18745 36874 ft 520 kts 101°
2026-04-23 00:29 13.22083 -11.11481 36877 ft 519 kts 101°
2026-04-23 00:29 13.20581 -11.04209 36877 ft 519 kts 101°
2026-04-23 00:30 13.19066 -10.96886 36879 ft 520 kts 101°
2026-04-23 00:30 13.17558 -10.89615 36873 ft 520 kts 101°
2026-04-23 00:31 13.16042 -10.82326 36868 ft 520 kts 101°
2026-04-23 00:31 13.14529 -10.75042 36862 ft 520 kts 101°
2026-04-23 00:32 13.13016 -10.67793 36867 ft 519 kts 101°
2026-04-23 00:32 13.11506 -10.60555 36871 ft 520 kts 101°
2026-04-23 00:33 13.09985 -10.53285 36875 ft 519 kts 101°
2026-04-23 00:33 13.08481 -10.46093 36880 ft 519 kts 101°
2026-04-23 00:34 13.06968 -10.38819 36887 ft 519 kts 101°
2026-04-23 00:34 13.05470 -10.31606 36873 ft 517 kts 102°
2026-04-23 00:35 13.03956 -10.24347 36878 ft 518 kts 102°
2026-04-23 00:35 13.02453 -10.17129 36879 ft 518 kts 102°
2026-04-23 00:36 13.00944 -10.09902 36881 ft 518 kts 102°
2026-04-23 00:36 12.99432 -10.02674 36888 ft 518 kts 101°
2026-04-23 00:37 12.97919 -9.95450 36888 ft 517 kts 101°
2026-04-23 00:37 12.96409 -9.88235 36888 ft 517 kts 102°
2026-04-23 00:38 12.94893 -9.81013 36886 ft 517 kts 102°
2026-04-23 00:38 12.93376 -9.73809 36884 ft 516 kts 102°
2026-04-23 00:39 12.91869 -9.66649 36887 ft 517 kts 101°
2026-04-23 00:39 12.90345 -9.59416 36880 ft 517 kts 101°
2026-04-23 00:40 12.88828 -9.52235 36886 ft 516 kts 101°
2026-04-23 00:40 12.87308 -9.45038 36887 ft 515 kts 102°
2026-04-23 00:41 12.85784 -9.37839 36893 ft 516 kts 102°
2026-04-23 00:41 12.84266 -9.30676 36887 ft 516 kts 102°
2026-04-23 00:42 12.82734 -9.23464 36896 ft 517 kts 102°
2026-04-23 00:42 12.81198 -9.16248 36897 ft 517 kts 102°
2026-04-23 00:43 12.79667 -9.09048 36897 ft 517 kts 102°
2026-04-23 00:43 12.78137 -9.01882 36900 ft 517 kts 102°
2026-04-23 00:44 12.76597 -8.94665 36902 ft 516 kts 102°
2026-04-23 00:44 12.75055 -8.87448 36907 ft 516 kts 102°
2026-04-23 00:45 12.73512 -8.80247 36913 ft 516 kts 102°
2026-04-23 00:45 12.71972 -8.73054 36920 ft 517 kts 102°
2026-04-23 00:46 12.70425 -8.65851 36919 ft 515 kts 102°
2026-04-23 00:46 12.68890 -8.58709 36923 ft 515 kts 102°
2026-04-23 00:47 12.67344 -8.51540 36925 ft 516 kts 102°
2026-04-23 00:47 12.65804 -8.44392 36927 ft 516 kts 102°
2026-04-23 00:48 12.64254 -8.37205 36931 ft 516 kts 102°
2026-04-23 00:48 12.62709 -8.30072 36925 ft 517 kts 103°
2026-04-23 00:49 12.61160 -8.22899 36926 ft 516 kts 103°
2026-04-23 00:49 12.59605 -8.15744 36912 ft 515 kts 102°
2026-04-23 00:50 12.58041 -8.08526 36901 ft 515 kts 103°
2026-04-23 00:50 12.56461 -8.01261 36884 ft 515 kts 102°
2026-04-23 00:51 12.54864 -7.93906 36882 ft 515 kts 101°
2026-04-23 00:51 12.54550 -7.90220 36925 ft 512 kts 89°
2026-04-23 00:51 12.54519 -7.86484 36868 ft 514 kts 90°
2026-04-23 00:52 12.54388 -7.79027 36894 ft 513 kts 90°
2026-04-23 00:52 12.54237 -7.71686 36908 ft 513 kts 90°
2026-04-23 00:53 12.54090 -7.64297 36913 ft 515 kts 90°
2026-04-23 00:53 12.53938 -7.56964 36918 ft 515 kts 90°
2026-04-23 00:54 12.53786 -7.49641 36920 ft 514 kts 90°
2026-04-23 00:54 12.53632 -7.42341 36920 ft 514 kts 90°
2026-04-23 00:55 12.53474 -7.35030 36919 ft 513 kts 90°
2026-04-23 00:55 12.53314 -7.27677 36908 ft 515 kts 90°
2026-04-23 00:56 12.53156 -7.20394 36909 ft 513 kts 91°
2026-04-23 00:56 12.52993 -7.13103 36908 ft 512 kts 90°
2026-04-23 00:57 12.52829 -7.05793 36905 ft 514 kts 91°
2026-04-23 00:57 12.52664 -6.98515 36896 ft 513 kts 91°
2026-04-23 00:58 12.52493 -6.91205 36894 ft 513 kts 90°
2026-04-23 00:58 12.52324 -6.83916 36895 ft 513 kts 90°
2026-04-23 00:59 12.52154 -6.76633 36893 ft 513 kts 90°
2026-04-23 00:59 12.51978 -6.69335 36895 ft 513 kts 90°
2026-04-23 01:00 12.51803 -6.62048 36895 ft 514 kts 90°
2026-04-23 01:00 12.51627 -6.54785 36898 ft 513 kts 91°
2026-04-23 01:01 12.51447 -6.47496 36898 ft 513 kts 90°
2026-04-23 01:01 12.51264 -6.40222 36898 ft 515 kts 91°
2026-04-23 01:02 12.51081 -6.32921 36885 ft 514 kts 91°
2026-04-23 01:02 12.50892 -6.25612 36884 ft 513 kts 91°
2026-04-23 01:03 12.50709 -6.18322 36883 ft 514 kts 91°
2026-04-23 01:03 12.50518 -6.11049 36884 ft 514 kts 91°
2026-04-23 01:04 12.50326 -6.03764 36892 ft 514 kts 91°
2026-04-23 01:04 12.50039 -5.92837 36896 ft 513 kts 91°
2026-04-23 01:05 12.49839 -5.85576 36895 ft 512 kts 91°
2026-04-23 01:05 12.49643 -5.78279 36894 ft 514 kts 91°
2026-04-23 01:06 12.49441 -5.71020 36900 ft 513 kts 91°
2026-04-23 01:06 12.49242 -5.63735 36903 ft 514 kts 91°
2026-04-23 01:07 12.49036 -5.56430 36904 ft 514 kts 91°
2026-04-23 01:07 12.48831 -5.49156 36905 ft 512 kts 91°
2026-04-23 01:08 12.48622 -5.41866 36905 ft 514 kts 91°
2026-04-23 01:08 12.48411 -5.34589 36904 ft 512 kts 91°
2026-04-23 01:09 12.48201 -5.27326 36892 ft 513 kts 91°
2026-04-23 01:09 12.47986 -5.20071 36894 ft 513 kts 91°
2026-04-23 01:10 12.47775 -5.12796 36895 ft 513 kts 91°
2026-04-23 01:10 12.47555 -5.05475 36897 ft 513 kts 91°
2026-04-23 01:11 12.47331 -4.98190 36898 ft 514 kts 91°
2026-04-23 01:11 12.47115 -4.90938 36902 ft 512 kts 91°
2026-04-23 01:12 12.46888 -4.83646 36901 ft 513 kts 91°
2026-04-23 01:12 12.46663 -4.76346 36906 ft 514 kts 91°
2026-04-23 01:13 12.46438 -4.69086 36911 ft 513 kts 91°
2026-04-23 01:13 12.46204 -4.61757 36918 ft 514 kts 91°
2026-04-23 01:14 12.45977 -4.54513 36927 ft 513 kts 91°
2026-04-23 01:14 12.45744 -4.47203 36930 ft 513 kts 91°
2026-04-23 01:15 12.45505 -4.39977 36923 ft 513 kts 91°
2026-04-23 01:15 12.45270 -4.32686 36904 ft 513 kts 91°
2026-04-23 01:16 12.45032 -4.25427 36898 ft 512 kts 91°
2026-04-23 01:16 12.44790 -4.18148 36895 ft 514 kts 91°
2026-04-23 01:17 12.44549 -4.10820 36902 ft 515 kts 91°
2026-04-23 01:17 12.44302 -4.03547 36904 ft 514 kts 91°
2026-04-23 01:18 12.44054 -3.96264 36903 ft 514 kts 91°
2026-04-23 01:18 12.43803 -3.88944 36904 ft 515 kts 91°
2026-04-23 01:19 12.43554 -3.81736 36602 ft 502 kts 91°
2026-04-23 01:19 12.43428 -3.78205 36009 ft 493 kts 91°
2026-04-23 01:19 12.43307 -3.74735 35482 ft 483 kts 90°
2026-04-23 01:20 12.43192 -3.71333 34990 ft 474 kts 91°
2026-04-23 01:20 12.43075 -3.68008 34515 ft 464 kts 90°
2026-04-23 01:20 12.42957 -3.64779 34052 ft 455 kts 90°
2026-04-23 01:20 12.42846 -3.61565 33605 ft 446 kts 89°
2026-04-23 01:21 12.42738 -3.58436 33174 ft 438 kts 90°
2026-04-23 01:21 12.42629 -3.55366 32746 ft 429 kts 89°
2026-04-23 01:21 12.42519 -3.52354 32356 ft 421 kts 89°
2026-04-23 01:21 12.42416 -3.49381 31954 ft 415 kts 89°
2026-04-23 01:22 12.42314 -3.46498 31562 ft 408 kts 89°
2026-04-23 01:22 12.42209 -3.43602 31160 ft 401 kts 88°
2026-04-23 01:22 12.42108 -3.40777 30765 ft 395 kts 89°
2026-04-23 01:22 12.42009 -3.38016 30367 ft 390 kts 89°
2026-04-23 01:23 12.41907 -3.35277 29978 ft 384 kts 89°
2026-04-23 01:23 12.41811 -3.32572 29580 ft 379 kts 89°
2026-04-23 01:23 12.41713 -3.29913 29183 ft 373 kts 89°
2026-04-23 01:23 12.41617 -3.27290 28799 ft 368 kts 88°
2026-04-23 01:24 12.41526 -3.24681 28435 ft 362 kts 88°
2026-04-23 01:24 12.41433 -3.22148 28090 ft 357 kts 89°
2026-04-23 01:24 12.41342 -3.19606 27745 ft 354 kts 89°
2026-04-23 01:24 12.41249 -3.17088 27398 ft 356 kts 90°
2026-04-23 01:25 12.41155 -3.14557 27046 ft 358 kts 90°
2026-04-23 01:25 12.41063 -3.12021 26681 ft 361 kts 90°
2026-04-23 01:25 12.40969 -3.09467 26316 ft 363 kts 91°
2026-04-23 01:25 12.40870 -3.06881 25938 ft 365 kts 91°
2026-04-23 01:26 12.40772 -3.04270 25558 ft 368 kts 91°
2026-04-23 01:26 12.40677 -3.01690 25177 ft 370 kts 92°
2026-04-23 01:26 12.40576 -2.99051 24785 ft 372 kts 92°
2026-04-23 01:26 12.40476 -2.96396 24396 ft 374 kts 92°
2026-04-23 01:27 12.40376 -2.93749 24010 ft 375 kts 93°
2026-04-23 01:27 12.40274 -2.91081 23613 ft 376 kts 93°
2026-04-23 01:27 12.40175 -2.88411 23206 ft 377 kts 94°
2026-04-23 01:27 12.40072 -2.85768 22809 ft 377 kts 94°
2026-04-23 01:28 12.39971 -2.83072 22396 ft 377 kts 94°
2026-04-23 01:28 12.39866 -2.80400 21986 ft 378 kts 94°
2026-04-23 01:28 12.39762 -2.77729 21573 ft 378 kts 94°
2026-04-23 01:28 12.39655 -2.75071 21162 ft 378 kts 94°
2026-04-23 01:29 12.39546 -2.72375 20746 ft 378 kts 94°
2026-04-23 01:29 12.39437 -2.69694 20332 ft 377 kts 94°
2026-04-23 01:29 12.39330 -2.67030 19918 ft 377 kts 94°
2026-04-23 01:29 12.39226 -2.64386 19500 ft 376 kts 94°
2026-04-23 01:30 12.39114 -2.61693 19078 ft 376 kts 94°
2026-04-23 01:30 12.39008 -2.59060 18674 ft 375 kts 94°
2026-04-23 01:30 12.38900 -2.56378 18257 ft 374 kts 94°
2026-04-23 01:30 12.38792 -2.53733 17839 ft 374 kts 94°
2026-04-23 01:31 12.38683 -2.51099 17420 ft 373 kts 94°
2026-04-23 01:31 12.38575 -2.48443 16998 ft 372 kts 94°
2026-04-23 01:31 12.38466 -2.45818 16585 ft 371 kts 94°
2026-04-23 01:31 12.38359 -2.43207 16178 ft 370 kts 94°
2026-04-23 01:32 12.38250 -2.40577 15757 ft 369 kts 94°
2026-04-23 01:32 12.38142 -2.37970 15350 ft 368 kts 94°
2026-04-23 01:32 12.38033 -2.35349 14925 ft 368 kts 94°
2026-04-23 01:32 12.37925 -2.32746 14508 ft 367 kts 94°
2026-04-23 01:33 12.37816 -2.30162 14093 ft 365 kts 94°
2026-04-23 01:33 12.37708 -2.27575 13689 ft 364 kts 94°
2026-04-23 01:33 12.37602 -2.25009 13283 ft 363 kts 94°
2026-04-23 01:33 12.37494 -2.22440 12873 ft 362 kts 93°
2026-04-23 01:34 12.37385 -2.19871 12454 ft 361 kts 93°
2026-04-23 01:34 12.37277 -2.17292 12043 ft 360 kts 93°
2026-04-23 01:34 12.37170 -2.14763 11634 ft 360 kts 93°
2026-04-23 01:34 12.37062 -2.12188 11225 ft 360 kts 93°
2026-04-23 01:35 12.36954 -2.09650 10832 ft 358 kts 93°
2026-04-23 01:35 12.36846 -2.07121 10476 ft 357 kts 93°
2026-04-23 01:35 12.36768 -2.05305 10245 ft 354 kts 92°
2026-04-23 01:37 12.36681 -2.03252 10200 ft 337 kts 92°
2026-04-23 01:37 12.36582 -2.00927 9958 ft 316 kts 92°
2026-04-23 01:38 12.36490 -1.98778 9575 ft 294 kts 92°
2026-04-23 01:38 12.36404 -1.96757 9267 ft 275 kts 92°
2026-04-23 01:38 12.36323 -1.94865 8980 ft 258 kts 92°
2026-04-23 01:38 12.36245 -1.93055 8663 ft 258 kts 92°
2026-04-23 01:39 12.36165 -1.91203 8179 ft 259 kts 91°
2026-04-23 01:39 12.36087 -1.89395 7708 ft 256 kts 91°
2026-04-23 01:39 12.35898 -1.87598 7227 ft 255 kts 108°
2026-04-23 01:39 12.35032 -1.86010 6790 ft 258 kts 120°
2026-04-23 01:40 12.34064 -1.84490 6319 ft 256 kts 120°
2026-04-23 01:40 12.33096 -1.82978 5853 ft 255 kts 120°
2026-04-23 01:40 12.32119 -1.81468 5385 ft 253 kts 120°
2026-04-23 01:40 12.31156 -1.79978 4975 ft 251 kts 120°
2026-04-23 01:41 12.30201 -1.78501 4512 ft 252 kts 120°
2026-04-23 01:41 12.29225 -1.76993 4038 ft 252 kts 119°
2026-04-23 01:41 12.28275 -1.75531 3596 ft 242 kts 118°
2026-04-23 01:41 12.27374 -1.74136 3130 ft 231 kts 118°
2026-04-23 01:42 12.26500 -1.72781 2664 ft 222 kts 119°
2026-04-23 01:42 12.25682 -1.71520 2535 ft 206 kts 119°
2026-04-23 01:42 12.24881 -1.70278 2593 ft 216 kts 119°
2026-04-23 01:42 12.24044 -1.68987 2557 ft 216 kts 119°
2026-04-23 01:43 12.23217 -1.67716 2542 ft 211 kts 119°
2026-04-23 01:43 12.22427 -1.66497 2542 ft 197 kts 119°
2026-04-23 01:43 12.21675 -1.65334 2542 ft 197 kts 118°
2026-04-23 01:43 12.20922 -1.64168 2539 ft 197 kts 119°
2026-04-23 01:44 12.20286 -1.62946 2530 ft 186 kts 97°
2026-04-23 01:44 12.20478 -1.61691 2558 ft 177 kts 57°
2026-04-23 01:44 12.21343 -1.60801 2556 ft 173 kts 39°
2026-04-23 01:44 12.22284 -1.60065 2541 ft 170 kts 35°
2026-04-23 01:45 12.23271 -1.59345 2546 ft 173 kts 32°
2026-04-23 01:45 12.24261 -1.58673 2537 ft 171 kts 33°
2026-04-23 01:45 12.25264 -1.57993 2539 ft 172 kts 32°
2026-04-23 01:45 12.26258 -1.57318 2535 ft 171 kts 35°
2026-04-23 01:46 12.27258 -1.56632 2541 ft 171 kts 33°
2026-04-23 01:46 12.28230 -1.55959 2337 ft 160 kts 33°
2026-04-23 01:46 12.29082 -1.55390 2151 ft 136 kts 30°
2026-04-23 01:46 12.29841 -1.54878 1959 ft 128 kts 29°
2026-04-23 01:47 12.30608 -1.54367 1842 ft 135 kts 29°
2026-04-23 01:47 12.31404 -1.53838 1681 ft 137 kts 30°
2026-04-23 01:47 12.32206 -1.53305 1511 ft 135 kts 30°
2026-04-23 01:47 12.33001 -1.52768 1334 ft 136 kts 29°
2026-04-23 01:48 12.33788 -1.52247 1163 ft 135 kts 34°
2026-04-23 01:48 12.34572 -1.51734 1055 ft 130 kts 33°
2026-04-23 01:48 12.35296 -1.51256 1021 ft 105 kts 34°
2026-04-23 01:48 12.35730 -1.50961 1010 ft 47 kts 37°
2026-04-23 01:49 12.35928 -1.50816 1003 ft 19 kts 35°
2026-04-23 01:49 12.36005 -1.50724 1000 ft 14 kts 43°
2026-04-23 01:49 12.35993 -1.50785 1001 ft 17 kts 213°
2026-04-23 01:49 12.35878 -1.50862 1005 ft 21 kts 213°
2026-04-23 01:50 12.35739 -1.50953 1009 ft 25 kts 213°
2026-04-23 01:50 12.35575 -1.51064 1015 ft 29 kts 213°
2026-04-23 01:50 12.35436 -1.51160 1016 ft 10 kts 212°
2026-04-23 01:50 12.35397 -1.51232 1018 ft 15 kts 285°
2026-04-23 01:51 12.35425 -1.51295 1019 ft 10 kts 285°
2026-04-23 01:51 12.35423 -1.51338 1020 ft 6 kts 244°
2026-04-23 01:51 12.35409 -1.51385 1021 ft 5 kts 256°
2026-04-23 01:51 12.35408 -1.51390 1021 ft 0 kts 256°